Regional Weather Roundup
Issued by NWS

Home | Current Version | Previous Version | Graphics & Text | Print | Product List | Glossary On
Versions: 1 2 3 4 5 6 7 8 9 10 11 12 13 14 15 16 17 18 19 20 21 22 23 24 25 26 27 28 29 30 31 32 33 34 35 36 37 38 39 40 41 42 43 44 45 46 47 48 49 50
000
ASUS43 KLOT 250708
RWRIL

ILLINOIS REGIONAL WEATHER ROUNDUP
NATIONAL WEATHER SERVICE CHICAGO/ROMEOVILLE IL
200 AM CDT THU AUG 25 2016

NOTE: "FAIR" INDICATES FEW OR NO CLOUDS BELOW 12,000 FEET WITH NO
SIGNIFICANT WEATHER AND/OR OBSTRUCTIONS TO VISIBILITY.

* THESE STATIONS ARE NOT UNDER NWS QUALITY CONTROL. THEY ALSO MAY NOT
  REPORT WEATHER SUCH AS PRECIPITATION OR FOG.

ILZ001-002-007-009-015-016-024-250800-
NORTHWEST ILLINOIS

CITY           SKY/WX    TMP DP  RH WIND       PRES   REMARKS
MOLINE         LGT RAIN  71  69  93 SW7       30.01R
STERLING*      CLOUDY    71  71 100 SW5       30.00R
SAVANNA*       CLOUDY    73  72  98 CALM      29.98R FOG
$$

ILZ003-004-008-010-011-017-018-250800-
NORTH CENTRAL ILLINOIS

CITY           SKY/WX    TMP DP  RH WIND       PRES   REMARKS
ROCKFORD       CLOUDY    73  71  93 SW5       29.98R
FREEPORT*      CLOUDY    71  70  97 SW6       29.99S
ROCHELLE*      CLOUDY    71  71  99 CALM      30.00R
DE KALB*       CLOUDY    72  71  97 SW3       29.99S
$$

ILZ005-006-012>014-019>023-250800-
NORTHEAST ILLINOIS

CITY           SKY/WX    TMP DP  RH WIND       PRES   REMARKS
CHICAGO-OHARE  CLOUDY    74  71  91 SW7       29.97F
CHICAGO-MIDWAY CLOUDY    76  71  85 SW7       29.98R
AURORA         CLOUDY    73  70  90 S8        29.98R
LANSING*       TSTM      73  69  86 SW13G18   30.00R
JOLIET*        CLOUDY    73  72  97 CALM      29.99S
WAUKEGAN       CLOUDY    75  71  87 SW8       29.94S
DUPAGE AIRPORT CLOUDY    74  70  87 SW6       29.97F
KANKAKEE*      CLOUDY    73  70  91 N5        30.03R
WHEELING       CLOUDY    75  71  87 SW6       29.97S
MORRIS*        CLOUDY    71  70  96 CALM      29.98S
ROMEOVILLE*    CLOUDY    71  68  90 S5        29.99S
NORTHERLY ISL    N/A     75  70  84 S2          N/A
$$

LMZ740>746-250800-
SOUTHERN LAKE MICHIGAN

STATION/POSITION SKY/WX   TEMP    WIND        PRES    VSBY  WAVE
                          AIR SEA DIR/SP/G                  HT/PER
                          (F)     (DEG/KT/KT) (MB)    (MI)  (FT/S)
SOUTHERN BUOY              76 75  220/ 12/ 14 1013.0R         1/ 2
WILMETTE HARBOR            73 70  240/ 10/ 12   N/A           1
HARRISON CRIB              77     210/ 12/ 13   N/A
BURNHAM HARBOR             75     210/  5/  8   N/A
CALUMET HARBOR             75     210/  6/  9 1014.7R
BURNS HARBOR               76     200/ 10/ 15 1015.6S
MICHIGAN CITY              76     180/  9/ 10   N/A
MICHIGAN CITY 6N           75 74  220/  8/  8   N/A           1/ 2
ST. JOSEPH                 76 74  220/ 10/ 14 1014.5R         2/ 3
$$

ILZ025>027-034>036-040-047-049-050-058-095>099-250800-
WEST-CENTRAL ILLINOIS

CITY           SKY/WX    TMP DP  RH WIND       PRES   REMARKS
QUINCY         RAIN      70  70 100 SW7       30.07R FOG
GALESBURG*     TSTM      74  73  97 SW9       30.04R
MACOMB*        TSTM      72  72  99 W3        30.04F
JACKSONVILLE*  CLOUDY    70  68  94 CALM      30.06F
PITTSFIELD*    CLOUDY    71  69  95 W5        30.08S
$$

ILZ028>032-037-038-041>044-048-051>054-059>061-250800-
CENTRAL ILLINOIS

CITY           SKY/WX    TMP DP  RH WIND       PRES   REMARKS
PONTIAC        TSTM      74  73  99 SW8       30.06R
BLOOMINGTON    LGT RAIN  70  67  90 W3        30.02S
DECATUR        CLOUDY    78  74  87 SW9       30.01F HX  81
PEORIA         TSTM      71  71 100 CALM      30.00F
LACON*         HVY RAIN  73  72  96 SW5       30.00S
LINCOLN*       RAIN      73  71  92 W5        30.06R
SPRINGFIELD    TSTM      70  68  93 NW15G32   30.07R FOG
TAYLORVILLE    CLOUDY    75  74  97 S7        30.02F
$$

ILZ033-039-045-046-055>057-062-063-250800-
EAST-CENTRAL ILLINOIS

CITY           SKY/WX    TMP DP  RH WIND       PRES   REMARKS
CHAMPAIGN      CLOUDY    75  74  96 SW9       30.02S
RANTOUL*       RAIN      76  76  98 SW7       30.02R
MATTOON        CLEAR     76  74  93 SW7       30.03S
PARIS*         CLEAR     74  73  99 CALM      30.05R
$$

ILZ079-100>102-250800-
SOUTHWEST ILLINOIS

CITY           SKY/WX    TMP DP  RH WIND       PRES   REMARKS
ALTON          CLOUDY    79  73  82 SW9       30.04S HX  82
BELLEVILLE     CLEAR     78  75  92 SW5       30.03S HX  80
CAHOKIA*       CLEAR     80  73  79 VRB3      30.03F HX  84
SPARTA*        CLEAR     77  74  92 CALM      30.06S
$$

ILZ064>066-069>071-074>076-080>082-084>086-088>090-092>094-250800-
SOUTH-CENTRAL ILLINOIS

CITY           SKY/WX    TMP DP  RH WIND       PRES   REMARKS
CARBONDALE     CLEAR     78  73  84 SW8       30.05S HX  81
CAIRO*         CLEAR     76  74  96 CALM      30.07S
EFFINGHAM*     PTCLDY    77  76  99 S3        30.06S
MARION         CLEAR     77  75  94 S3        30.06F
MT. VERNON     CLEAR     77  72  83 SW6       30.07R
CENTRALIA*     CLEAR     75  75  98 S5        30.04F
SALEM*         CLEAR     78  75  88 SW7       30.05S HX  81
METROPOLIS*    CLEAR     75  74  95 CALM      30.09R
$$

ILZ067-068-072-073-078-083-087-091-250800-
SOUTHEAST ILLINOIS

CITY           SKY/WX    TMP DP  RH WIND       PRES   REMARKS
LAWRENCEVILLE  CLEAR     77  75  93 S7        30.05S
FLORA*         CLEAR     76  75  96 S3        30.05S
FAIRFIELD*     CLEAR     76  75  96 CALM      30.05R
HARRISBURG*    CLEAR     75  74  96 S5        30.07S
ROBINSON*      PTCLDY    76  75  94 SW9       30.05S
CARMI*         CLEAR     75  74  98 S5        30.05F
$$

ABBREVIATIONS USED IN REMARKS
   TC - TEMPERATURE IN CELSIUS
  WCI - WIND CHILL INDEX
   HX - HEAT INDEX
  VSB - VISIBILITY
$$




USA.gov is the U.S. government's official web portal to all federal, state and local government web resources and services.